Location: Banff
(51.1667°N, 115.5667°W)
Time: 17:01:21
(UTC+00:00)

Altair - All Passes

Search period start: 04 December 2020 00:00
Search period end: 14 December 2020 00:00
Orbit: 1502 x 1682 km, 47.2° (Epoch: 03 December)

Date Brightness Start Highest point End Pass type
(mag) Time Alt. Az. Time Alt. Az. Time Alt. Az.
04 Dec - 00:30:10 10° SE 00:33:25 12° SE 00:36:37 10° ESE visible
04 Dec - 02:27:31 10° SSW 02:35:57 38° SE 02:44:10 10° E visible
04 Dec - 04:30:25 10° WSW 04:39:39 66° SSE 04:48:43 10° E visible
04 Dec - 06:34:44 10° W 06:43:53 67° S 06:52:55 10° ESE visible
04 Dec - 08:39:19 10° W 08:47:35 39° SW 08:55:52 10° SSE night (unlit)
04 Dec - 10:46:30 10° WSW 10:50:07 13° SW 10:53:45 10° SSW night (unlit)
05 Dec - 00:06:34 10° SE 00:08:26 11° ESE 00:10:17 10° ESE visible
05 Dec - 02:02:35 10° SSW 02:10:53 36° SE 02:18:59 10° E visible
05 Dec - 04:05:17 10° WSW 04:14:32 64° SSE 04:23:34 10° E visible
05 Dec - 06:09:34 10° W 06:18:45 68° S 06:27:49 10° ESE visible
05 Dec - 08:14:08 10° W 08:22:31 41° SSW 08:30:55 10° SSE night (unlit)
05 Dec - 10:20:46 10° W 10:25:09 14° SW 10:29:33 10° SSW night (unlit)
06 Dec - 01:37:39 10° SSW 01:45:50 34° SE 01:53:48 10° E visible
06 Dec - 03:40:10 10° WSW 03:49:25 63° SSE 03:58:26 10° E visible
06 Dec - 05:44:24 10° W 05:53:37 69° S 06:02:42 10° ESE visible
06 Dec - 07:48:57 10° W 07:57:28 44° SSW 08:05:56 10° SE night (unlit)
06 Dec - 09:55:10 10° W 10:00:10 16° SW 10:05:11 10° SSW night (unlit)
07 Dec - 01:12:45 10° SSW 01:20:47 32° SE 01:28:36 10° E visible
07 Dec - 03:15:03 10° WSW 03:24:17 61° SSE 03:33:18 10° E visible
07 Dec - 05:19:14 10° W 05:28:30 70° S 05:37:34 10° ESE visible
07 Dec - 07:23:46 10° W 07:32:23 46° SSW 07:40:57 10° SE night (unlit)
07 Dec - 09:29:41 10° W 09:35:11 18° SW 09:40:43 10° SSW night (unlit)
08 Dec - 00:47:52 10° SSW 00:55:44 30° SE 01:03:23 10° E visible
08 Dec - 02:49:56 10° WSW 02:59:10 59° SSE 03:08:09 10° E visible
08 Dec - 04:54:04 10° W 05:03:21 70° S 05:12:27 10° ESE visible
08 Dec - 06:58:36 10° W 07:07:19 48° SSW 07:15:57 10° SE visible
08 Dec - 09:04:15 10° W 09:10:12 19° SW 09:16:10 10° S night (unlit)
09 Dec - 00:23:02 10° S 00:30:41 28° SE 00:38:09 10° E visible
09 Dec - 02:24:49 10° SW 02:34:03 57° SSE 02:43:01 10° E visible
09 Dec - 04:28:53 10° W 04:38:13 71° S 04:47:20 10° ESE visible
09 Dec - 06:33:25 10° W 06:42:14 50° SSW 06:50:56 10° SE visible
09 Dec - 08:38:52 10° W 08:45:12 21° SW 08:51:32 10° S night (unlit)
09 Dec - 23:58:13 10° S 00:05:39 26° SE 00:12:54 10° E visible
10 Dec - 01:59:43 10° SW 02:08:56 55° SSE 02:17:53 10° E visible
10 Dec - 04:03:44 10° W 04:13:05 71° S 04:22:12 10° E visible
10 Dec - 06:08:14 10° W 06:17:09 53° SSW 06:25:55 10° SE visible
10 Dec - 08:13:32 10° W 08:20:12 23° SW 08:26:52 10° S night (unlit)
10 Dec - 23:33:27 10° S 23:40:37 24° SE 23:47:37 10° E daylight
11 Dec - 01:34:38 10° SW 01:43:50 53° SSE 01:52:44 10° E visible
11 Dec - 03:38:33 10° W 03:47:56 71° S 03:57:04 10° E visible
11 Dec - 05:43:04 10° W 05:52:02 55° SSW 06:00:52 10° SE visible
11 Dec - 07:48:13 10° W 07:55:12 25° SW 08:02:09 10° S night (unlit)
11 Dec - 23:08:42 10° S 23:15:36 22° SE 23:22:19 10° E daylight
12 Dec - 01:09:33 10° SW 01:18:43 51° SSE 01:27:35 10° E visible
12 Dec - 03:13:22 10° WSW 03:22:48 71° S 03:31:57 10° E visible
12 Dec - 05:17:53 10° W 05:26:56 57° SSW 05:35:49 10° SE visible
12 Dec - 07:22:56 10° W 07:30:11 27° SW 07:37:23 10° S night (unlit)
12 Dec - 22:44:02 10° S 22:50:34 21° SE 22:56:58 10° E daylight
13 Dec - 00:44:29 10° SW 00:53:37 49° SSE 01:02:27 10° E visible
13 Dec - 02:48:12 10° WSW 02:57:40 70° S 03:06:49 10° E visible
13 Dec - 04:52:42 10° W 05:01:50 59° SSW 05:10:46 10° SE visible
13 Dec - 06:57:39 10° W 07:05:10 29° SW 07:12:36 10° SSE visible
13 Dec - 22:19:24 10° S 22:25:33 19° SE 22:31:35 10° E daylight
